TimeEST,TemperatureF,Dew PointF,Humidity,Sea Level PressureIn,VisibilityMPH,Wind Direction,Wind SpeedMPH,Gust SpeedMPH,PrecipitationIn,Events,Conditions,WindDirDegrees,DateUTC
12:06 AM,28.4,26.6,93,30.30,2.5,Calm,Calm,-,N/A,,Clear,0,2012-12-04 05:06:00
12:07 AM,28.4,26.6,93,30.30,2.0,Calm,Calm,-,N/A,,Clear,0,2012-12-04 05:07:00
12:08 AM,28.4,26.6,93,30.30,1.5,Calm,Calm,-,N/A,,Clear,0,2012-12-04 05:08:00
12:09 AM,28.4,26.6,93,30.30,1.2,Calm,Calm,-,N/A,,Clear,0,2012-12-04 05:09:00
12:10 AM,28.4,26.6,93,30.30,1.0,Calm,Calm,-,N/A,,Clear,0,2012-12-04 05:10:00
12:11 AM,28.4,26.6,93,30.30,0.8,Calm,Calm,-,N/A,,Clear,0,2012-12-04 05:11:00
12:13 AM,26.6,26.6,100,30.30,0.8,Calm,Calm,-,N/A,,Clear,0,2012-12-04 05:13:00
12:14 AM,26.6,26.6,100,30.30,0.5,Calm,Calm,-,N/A,Fog,Light Freezing Fog,0,2012-12-04 05:14:00
12:16 AM,26.6,26.6,100,30.30,0.5,Calm,Calm,-,N/A,Fog,Light Freezing Fog,0,2012-12-04 05:16:00
12:26 AM,26.6,26.6,100,30.29,0.5,ENE,3.5,-,N/A,Fog,Light Freezing Fog,60,2012-12-04 05:26:00
12:27 AM,26.6,26.6,100,30.29,0.5,ENE,3.5,-,N/A,Fog,Light Freezing Fog,60,2012-12-04 05:27:00
12:28 AM,26.6,26.6,100,30.29,0.8,ENE,3.5,-,N/A,,Clear,60,2012-12-04 05:28:00
12:30 AM,26.6,26.6,100,30.29,1.0,NE,3.5,-,N/A,,Clear,50,2012-12-04 05:30:00
12:32 AM,26.6,26.6,100,30.29,1.2,NE,3.5,-,N/A,,Clear,40,2012-12-04 05:32:00
12:33 AM,26.6,26.6,100,30.29,1.5,Calm,Calm,-,N/A,,Clear,0,2012-12-04 05:33:00
12:34 AM,26.6,26.6,100,30.29,2.5,Calm,Calm,-,N/A,,Clear,0,2012-12-04 05:34:00
12:35 AM,26.6,26.6,100,30.29,4.0,NE,3.5,-,N/A,,Clear,40,2012-12-04 05:35:00
12:55 AM,28.8,28.2,98,30.30,10.0,Calm,Calm,-,N/A,,Clear,0,2012-12-04 05:55:00
1:41 AM,28.4,28.4,100,30.30,2.0,Calm,Calm,-,N/A,,Clear,0,2012-12-04 06:41:00
1:42 AM,28.4,28.4,100,30.30,1.5,Calm,Calm,-,N/A,,Clear,0,2012-12-04 06:42:00
1:43 AM,28.4,28.4,100,30.30,1.0,Calm,Calm,-,N/A,,Clear,0,2012-12-04 06:43:00
1:44 AM,28.4,28.4,100,30.30,0.8,Calm,Calm,-,N/A,,Clear,0,2012-12-04 06:44:00
1:46 AM,28.4,28.4,100,30.30,0.5,Calm,Calm,-,N/A,Fog,Light Freezing Fog,0,2012-12-04 06:46:00
1:49 AM,28.4,28.4,100,30.30,0.2,Calm,Calm,-,N/A,Fog,Light Freezing Fog,0,2012-12-04 06:49:00
1:51 AM,28.4,28.4,100,30.30,0.2,Calm,Calm,-,N/A,Fog,Light Freezing Fog,0,2012-12-04 06:51:00
1:52 AM,28.4,28.4,100,30.30,0.2,Calm,Calm,-,N/A,Fog,Light Freezing Fog,0,2012-12-04 06:52:00
1:53 AM,28.4,28.4,100,30.30,0.2,Calm,Calm,-,N/A,Fog,Light Freezing Fog,0,2012-12-04 06:53:00
1:55 AM,28.4,27.9,98,30.30,0.2,Calm,Calm,-,N/A,Fog,Light Freezing Fog,0,2012-12-04 06:55:00
1:59 AM,28.4,28.4,100,30.30,0.2,Calm,Calm,-,N/A,Fog,Light Freezing Fog,0,2012-12-04 06:59:00
2:00 AM,28.4,26.6,93,30.30,0.2,Calm,Calm,-,N/A,Fog,Light Freezing Fog,0,2012-12-04 07:00:00
2:01 AM,28.4,26.6,93,30.30,0.2,Calm,Calm,-,N/A,Fog,Light Freezing Fog,0,2012-12-04 07:01:00
2:02 AM,28.4,26.6,93,30.30,0.2,Calm,Calm,-,N/A,Fog,Light Freezing Fog,0,2012-12-04 07:02:00
2:06 AM,26.6,26.6,100,30.30,0.5,Calm,Calm,-,N/A,Fog,Light Freezing Fog,0,2012-12-04 07:06:00
2:12 AM,28.4,26.6,93,30.30,0.5,Calm,Calm,-,N/A,Fog,Light Freezing Fog,0,2012-12-04 07:12:00
2:16 AM,28.4,28.4,100,30.30,0.2,Calm,Calm,-,N/A,Fog,Light Freezing Fog,0,2012-12-04 07:16:00
2:18 AM,28.4,28.4,100,30.30,0.2,Calm,Calm,-,N/A,Fog,Light Freezing Fog,0,2012-12-04 07:18:00
2:22 AM,28.4,28.4,100,30.30,0.2,Calm,Calm,-,N/A,Fog,Light Freezing Fog,0,2012-12-04 07:22:00
2:33 AM,28.4,28.4,100,30.29,0.2,Calm,Calm,-,N/A,Fog,Light Freezing Fog,0,2012-12-04 07:33:00
2:34 AM,28.4,28.4,100,30.29,0.2,Calm,Calm,-,N/A,Fog,Light Freezing Fog,0,2012-12-04 07:34:00
2:36 AM,28.4,28.4,100,30.29,0.2,Calm,Calm,-,N/A,Fog,Light Freezing Fog,0,2012-12-04 07:36:00
2:40 AM,28.4,26.6,93,30.30,0.2,Calm,Calm,-,N/A,Fog,Light Freezing Fog,0,2012-12-04 07:40:00
2:41 AM,28.4,26.6,93,30.30,0.2,Calm,Calm,-,N/A,Fog,Light Freezing Fog,0,2012-12-04 07:41:00
2:42 AM,28.4,26.6,93,30.30,0.2,Calm,Calm,-,N/A,Fog,Light Freezing Fog,0,2012-12-04 07:42:00
2:43 AM,28.4,26.6,93,30.30,0.2,Calm,Calm,-,N/A,Fog,Light Freezing Fog,0,2012-12-04 07:43:00
2:45 AM,28.4,26.6,93,30.30,0.2,Calm,Calm,-,N/A,Fog,Light Freezing Fog,0,2012-12-04 07:45:00
2:48 AM,28.4,26.6,93,30.30,0.5,Calm,Calm,-,N/A,Fog,Light Freezing Fog,0,2012-12-04 07:48:00
2:55 AM,27.7,27.3,99,30.29,0.5,Calm,Calm,-,N/A,Fog,Light Freezing Fog,0,2012-12-04 07:55:00
3:05 AM,28.4,28.4,100,30.29,0.5,Calm,Calm,-,N/A,Fog,Light Freezing Fog,0,2012-12-04 08:05:00
3:19 AM,28.4,28.4,100,30.30,0.5,Calm,Calm,-,N/A,Fog,Light Freezing Fog,0,2012-12-04 08:19:00
3:29 AM,28.4,28.4,100,30.30,0.5,Calm,Calm,-,N/A,Fog,Light Freezing Fog,0,2012-12-04 08:29:00
3:32 AM,28.4,28.4,100,30.30,0.5,Calm,Calm,-,N/A,Fog,Light Freezing Fog,0,2012-12-04 08:32:00
3:35 AM,28.4,28.4,100,30.30,0.8,NW,3.5,-,N/A,,Mist,310,2012-12-04 08:35:00
3:39 AM,28.4,28.4,100,30.30,1.0,Calm,Calm,-,N/A,,Mist,0,2012-12-04 08:39:00
3:41 AM,28.4,28.4,100,30.30,1.0,Calm,Calm,-,N/A,,Mist,0,2012-12-04 08:41:00
3:47 AM,28.4,28.4,100,30.30,0.8,Calm,Calm,-,N/A,,Mist,0,2012-12-04 08:47:00
3:51 AM,28.4,28.4,100,30.30,0.5,NNE,3.5,-,N/A,Fog,Light Freezing Fog,30,2012-12-04 08:51:00
3:52 AM,28.4,28.4,100,30.30,0.5,NNE,3.5,-,N/A,Fog,Light Freezing Fog,30,2012-12-04 08:52:00
3:53 AM,28.4,28.4,100,30.30,0.5,NE,3.5,-,N/A,Fog,Light Freezing Fog,40,2012-12-04 08:53:00
3:55 AM,28.4,28.0,99,30.30,0.5,NE,3.5,-,N/A,Fog,Light Freezing Fog,40,2012-12-04 08:55:00
4:02 AM,28.4,28.4,100,30.30,0.8,NE,3.5,-,N/A,,Mist,40,2012-12-04 09:02:00
4:04 AM,28.4,28.4,100,30.30,0.8,NE,4.6,-,N/A,,Mist,40,2012-12-04 09:04:00
4:06 AM,28.4,28.4,100,30.30,1.0,NE,4.6,-,N/A,,Mist,50,2012-12-04 09:06:00
4:07 AM,28.4,28.4,100,30.30,1.0,NE,4.6,-,N/A,,Mist,50,2012-12-04 09:07:00
4:12 AM,28.4,28.4,100,30.30,1.2,ENE,4.6,-,N/A,,Overcast,60,2012-12-04 09:12:00
4:17 AM,30.2,28.4,93,30.29,1.0,NE,5.8,-,N/A,,Mist,50,2012-12-04 09:17:00
4:20 AM,30.2,30.2,100,30.29,1.0,NE,4.6,-,N/A,,Mist,50,2012-12-04 09:20:00
4:23 AM,30.2,30.2,100,30.30,0.8,NNE,4.6,-,N/A,,Mist,30,2012-12-04 09:23:00
4:25 AM,30.2,30.2,100,30.30,0.8,NNE,3.5,-,N/A,,Scattered Clouds,30,2012-12-04 09:25:00
4:28 AM,30.2,30.2,100,30.30,0.8,Calm,Calm,-,N/A,,Scattered Clouds,0,2012-12-04 09:28:00
4:36 AM,30.2,30.2,100,30.30,0.5,Calm,Calm,-,N/A,Fog,Light Freezing Fog,0,2012-12-04 09:36:00
4:43 AM,30.2,30.2,100,30.30,0.8,Calm,Calm,-,N/A,,Mostly Cloudy,0,2012-12-04 09:43:00
4:47 AM,30.2,30.2,100,30.30,0.8,Calm,Calm,-,N/A,,Mostly Cloudy,0,2012-12-04 09:47:00
4:49 AM,30.2,30.2,100,30.30,1.0,Calm,Calm,-,N/A,,Mostly Cloudy,0,2012-12-04 09:49:00
4:52 AM,30.2,30.2,100,30.30,1.2,Calm,Calm,-,N/A,,Mostly Cloudy,0,2012-12-04 09:52:00
4:55 AM,30.7,30.2,98,30.30,1.5,Calm,Calm,-,N/A,,Mostly Cloudy,0,2012-12-04 09:55:00
4:56 AM,30.2,30.2,100,30.30,2.0,Calm,Calm,-,N/A,,Mostly Cloudy,0,2012-12-04 09:56:00
4:57 AM,30.2,30.2,100,30.30,2.5,Calm,Calm,-,N/A,,Mostly Cloudy,0,2012-12-04 09:57:00
4:58 AM,30.2,30.2,100,30.30,3.0,Calm,Calm,-,N/A,,Mostly Cloudy,0,2012-12-04 09:58:00
5:55 AM,32.2,31.6,98,30.30,10.0,Calm,Calm,-,N/A,,Overcast,0,2012-12-04 10:55:00
6:36 AM,33.8,32.0,93,30.31,10.0,Calm,Calm,-,N/A,,Overcast,0,2012-12-04 11:36:00
6:55 AM,33.4,33.1,99,30.30,10.0,Calm,Calm,-,N/A,,Overcast,0,2012-12-04 11:55:00
7:35 AM,33.8,33.8,100,30.31,10.0,NNW,3.5,-,N/A,,Overcast,330,2012-12-04 12:35:00
7:50 AM,33.8,33.8,100,30.30,10.0,Calm,Calm,-,N/A,,Overcast,0,2012-12-04 12:50:00
7:52 AM,33.8,33.8,100,30.30,10.0,Calm,Calm,-,N/A,,Overcast,0,2012-12-04 12:52:00
7:55 AM,34.3,34.0,99,30.30,10.0,Calm,Calm,-,N/A,,Overcast,0,2012-12-04 12:55:00
8:47 AM,35.6,35.6,100,30.30,10.0,Calm,Calm,-,N/A,,Overcast,0,2012-12-04 13:47:00
8:55 AM,36.0,35.4,98,30.30,10.0,Calm,Calm,-,N/A,,Overcast,0,2012-12-04 13:55:00
8:56 AM,35.6,35.6,100,30.30,10.0,Calm,Calm,-,N/A,,Overcast,0,2012-12-04 13:56:00
9:01 AM,35.6,35.6,100,30.30,10.0,Calm,Calm,-,N/A,,Overcast,0,2012-12-04 14:01:00
9:14 AM,35.6,35.6,100,30.30,10.0,Calm,Calm,-,N/A,,Overcast,0,2012-12-04 14:14:00
9:20 AM,35.6,35.6,100,30.30,10.0,Calm,Calm,-,N/A,,Overcast,0,2012-12-04 14:20:00
9:22 AM,35.6,35.6,100,30.30,10.0,Calm,Calm,-,N/A,,Overcast,0,2012-12-04 14:22:00
9:26 AM,37.4,35.6,93,30.30,10.0,Calm,Calm,-,N/A,,Overcast,0,2012-12-04 14:26:00
9:55 AM,37.0,36.5,98,30.30,10.0,Calm,Calm,-,N/A,,Overcast,0,2012-12-04 14:55:00
10:03 AM,37.4,37.4,100,30.30,6.0,Calm,Calm,-,N/A,,Overcast,0,2012-12-04 15:03:00
10:24 AM,37.4,37.4,100,30.29,10.0,Calm,Calm,-,N/A,,Overcast,0,2012-12-04 15:24:00
10:25 AM,37.4,37.4,100,30.28,5.0,Calm,Calm,-,N/A,Rain,Light Rain,0,2012-12-04 15:25:00
10:55 AM,37.9,37.4,98,30.28,10.0,Calm,Calm,-,0.00,,Overcast,0,2012-12-04 15:55:00
11:06 AM,37.4,37.4,100,30.27,10.0,Calm,Calm,-,N/A,,Overcast,0,2012-12-04 16:06:00
11:26 AM,39.2,37.4,93,30.26,10.0,Calm,Calm,-,N/A,,Overcast,0,2012-12-04 16:26:00
11:43 AM,39.2,37.4,93,30.25,10.0,Calm,Calm,-,N/A,,Overcast,0,2012-12-04 16:43:00
11:45 AM,39.2,37.4,93,30.25,10.0,SE,2.3,-,N/A,Rain,Light Rain,130,2012-12-04 16:45:00
11:55 AM,39.0,38.5,98,30.25,5.0,Calm,Calm,-,0.00,Rain,Light Rain,0,2012-12-04 16:55:00
12:01 PM,39.2,39.2,100,30.24,6.0,Calm,Calm,-,N/A,,Overcast,0,2012-12-04 17:01:00
12:05 PM,39.2,39.2,100,30.24,10.0,Calm,Calm,-,N/A,,Overcast,0,2012-12-04 17:05:00
12:32 PM,39.2,39.2,100,30.24,10.0,Calm,Calm,-,N/A,,Overcast,0,2012-12-04 17:32:00
12:55 PM,40.1,39.6,98,30.22,9.0,Calm,Calm,-,0.00,,Overcast,0,2012-12-04 17:55:00
1:16 PM,41.0,39.2,93,30.21,9.0,Calm,Calm,-,N/A,,Overcast,0,2012-12-04 18:16:00
1:55 PM,41.7,40.3,95,30.19,7.0,Calm,Calm,-,N/A,,Overcast,0,2012-12-04 18:55:00
2:27 PM,41.0,41.0,100,30.18,1.8,Calm,Calm,-,N/A,,Light Drizzle,0,2012-12-04 19:27:00
2:55 PM,41.7,41.0,97,30.18,1.5,Calm,Calm,-,N/A,,Light Drizzle,0,2012-12-04 19:55:00
3:15 PM,41.0,41.0,100,30.17,1.5,Calm,Calm,-,N/A,,Light Drizzle,0,2012-12-04 20:15:00
3:55 PM,42.4,41.9,98,30.16,1.0,Calm,Calm,-,N/A,,Overcast,0,2012-12-04 20:55:00
4:42 PM,42.8,42.8,100,30.15,1.0,Calm,Calm,-,N/A,,Overcast,0,2012-12-04 21:42:00
4:45 PM,42.8,42.8,100,30.15,1.0,Calm,Calm,-,N/A,,Overcast,0,2012-12-04 21:45:00
4:55 PM,42.6,42.1,98,30.14,1.0,Calm,Calm,-,N/A,,Overcast,0,2012-12-04 21:55:00
5:15 PM,42.8,42.8,100,30.14,1.5,Calm,Calm,-,N/A,,Overcast,0,2012-12-04 22:15:00
5:18 PM,42.8,42.8,100,30.14,1.5,Calm,Calm,-,N/A,,Overcast,0,2012-12-04 22:18:00
5:35 PM,42.8,42.8,100,30.14,1.5,Calm,Calm,-,N/A,,Overcast,0,2012-12-04 22:35:00
5:55 PM,42.8,42.3,98,30.13,1.8,Calm,Calm,-,N/A,,Overcast,0,2012-12-04 22:55:00
5:59 PM,42.8,42.8,100,30.12,1.5,Calm,Calm,-,N/A,,Overcast,0,2012-12-04 22:59:00
6:22 PM,42.8,42.8,100,30.12,2.0,Calm,Calm,-,N/A,,Overcast,0,2012-12-04 23:22:00
6:40 PM,42.8,42.8,100,30.12,2.0,Calm,Calm,-,N/A,,Overcast,0,2012-12-04 23:40:00
6:41 PM,42.8,42.8,100,30.11,2.0,Calm,Calm,-,N/A,,Overcast,0,2012-12-04 23:41:00
6:55 PM,43.7,43.2,98,30.11,4.0,Calm,Calm,-,N/A,,Overcast,0,2012-12-04 23:55:00
7:55 PM,46.8,46.2,98,30.07,5.0,South,3.5,-,N/A,,Overcast,190,2012-12-05 00:55:00
8:42 PM,51.8,51.8,100,30.04,9.0,Variable,4.6,-,N/A,,Overcast,0,2012-12-05 01:42:00
8:55 PM,54.0,53.4,98,30.04,10.0,SSW,12.7,19.6,N/A,,Overcast,200,2012-12-05 01:55:00
9:22 PM,55.4,55.4,100,30.03,10.0,SSW,12.7,-,N/A,,Overcast,200,2012-12-05 02:22:00
9:55 PM,55.8,54.7,96,30.02,10.0,SSW,12.7,19.6,N/A,,Overcast,200,2012-12-05 02:55:00
10:55 PM,55.4,54.3,96,29.99,10.0,South,13.8,-,N/A,,Overcast,180,2012-12-05 03:55:00
11:55 PM,55.4,54.0,95,29.96,9.0,South,12.7,-,N/A,,Overcast,190,2012-12-05 04:55:00